Location: Newark
(39.5667°N, 8.9833°E)
Time: 11:14:15
(UTC+00:00)

Transit 2A - Pass Details

Date: 28 October 2019
Orbit: 601 x 957 km, 66.7° (Epoch: 21 November)

Event Time Altitude Azimuth Distance (km) Brightness Sun altitude
Rises 02:50:19 0° 317° (NW) 2,859 - -34.6°
Reaches altitude 10° 02:52:54 10° 303° (WNW) 1,948 - -34.1°
Maximum altitude 02:56:20 23° 250° (WSW) 1,298 - -33.4°
Drops below altitude 10° 02:59:49 10° 198° (SSW) 1,980 - -32.8°
Sets 03:02:28 0° 184° (S) 2,919 - -32.3°
